User: anonymous   Login
Location: Unspecified
(0.0000°N, 0.0000°E)
Time: 13:36:28
(UTC+01:00)
Language:

Cosmos 2237 Rocket - Orbit

View from above orbital plane
View from above orbital plane
View from above satellite
View from above satellite

Ground track
Ground track

The orbit data is extracted from the following two-line orbital elements,

1 22566U 93016B   14304.35934017  .00000021  00000-0  35508-4 0  1949
2 22566 071.0073 281.5345 0009402 165.6643 194.4748 14.14856813115505
Epoch (UTC): 31 October 2014 08:37:26
Eccentricity: 0.0009402
inclination: 71.0073°
perigee height: 836 km
apogee height: 849 km
right ascension of ascending node: 281.5345°
argument of perigee: 165.6643°
revolutions per day: 14.14856813
mean anomaly at epoch: 194.4748°
orbit number at epoch: 11550

The dashed part of the orbit path shows where the satellite is in the earth's shadow,  

DLR